Location: Unspecified
(0.0000°N, 0.0000°E)
Time: 17:20:59
(UTC+00:00)

Courier 1B Rocket - Pass Details

Date: 04 October 2020
Orbit: 921 x 1202 km, 28.2° (Epoch: 27 October)

Event Time Altitude Azimuth Distance (km) Brightness Sun altitude
Rises 09:34:50 0° 328° (NNW) 3,538 7.7 56.3°
Reaches altitude 10° 09:38:41 10° 351° (N) 2,603 7.3 57.2°
Maximum altitude 09:42:06 15° 25° (NNE) 2,276 7.3 58.1°
Drops below altitude 10° 09:45:35 10° 59° (ENE) 2,651 7.8 58.9°
Sets 09:49:33 0° 81° (E) 3,644 8.4 59.9°
